Location: STAR School
(35.3054°N, 111.2976°W)
Time: 03:15:13
(UTC-07:00)

Vanguard 1 - Pass Details

Date: 28 October 2019
Orbit: 652 x 3831 km, 34.2° (Epoch: 11 November)

Event Time Altitude Azimuth Distance (km) Brightness Sun altitude
Rises 20:39:18 0° 279° (W) 3,941 14.1 -38.1°
Reaches altitude 10° 20:41:30 10° 277° (W) 3,234 13.4 -38.6°
Enters shadow 20:49:26 71° 207° (SSW) 1,919 11.3 -40.2°
